QPF
0.03 0.03 0.03 0.04 0.03 0.02 0.02 0.02 0.02 0.02 0.02 0.02 0.01 0.01 0.00 0.00 0.00 0.00 0.00 0.00 0.01 0.01 0.03 0.03 0.04 0.04 0.03 0.03 0.02 0.01 0.02 0.02 0.04 0.03 0.03 0.03 0.02 0.02 0.02 0.02 0.02 0.02 0.02
0.03 0.04 0.04 0.04 0.04 0.03 0.02 0.02 0.03 0.02 0.01 0.01 0.01 0.01 0.01 0.00 0.00 0.00 0.00 0.00 0.01 0.01 0.01 0.02 0.03 0.04 0.04 0.05 0.02 0.01 0.01 0.01 0.02 0.02 0.02 0.02 0.02 0.02 0.02 0.03 0.03 0.02 0.03
0.03 0.03 0.05 0.04 0.03 0.03 0.03 0.03 0.04 0.03 0.02 0.01 0.01 0.01 0.01 0.01 0.00 0.00 0.00 0.00 0.00 0.00 0.01 0.01 0.02 0.03 0.03 0.04 0.04 0.03 0.02 0.02 0.02 0.02 0.02 0.02 0.02 0.02 0.03 0.03 0.03 0.03 0.02
0.04 0.02 0.03 0.03 0.03 0.02 0.03 0.04 0.05 0.06 0.04 0.03 0.02 0.01 0.01 0.01 0.01 0.00 0.00 0.00 0.00 0.00 0.00 0.00 0.01 0.01 0.03 0.03 0.04 0.04 0.03 0.02 0.01 0.01 0.01 0.02 0.02 0.02 0.02 0.03 0.03 0.04 0.03
0.06 0.02 0.02 0.02 0.02 0.02 0.02 0.05 0.06 0.05 0.05 0.05 0.05 0.05 0.04 0.02 0.01 0.01 0.01 0.00 0.00 0.00 0.00 0.01 0.00 0.01 0.02 0.02 0.03 0.04 0.03 0.02 0.01 0.01 0.01 0.01 0.01 0.01 0.02 0.01 0.02 0.03 0.03
0.05 0.03 0.02 0.03 0.02 0.02 0.03 0.05 0.07 0.05 0.04 0.03 0.03 0.03 0.05 0.07 0.07 0.05 0.03 0.02 0.01 0.00 0.00 0.00 0.01 0.01 0.01 0.01 0.02 0.03 0.03 0.02 0.01 0.01 0.01 0.01 0.02 0.02 0.02 0.02 0.01 0.02 0.02
0.04 0.03 0.03 0.03 0.04 0.02 0.02 0.04 0.07 0.06 0.04 0.04 0.03 0.02 0.02 0.02 0.04 0.07 0.07 0.06 0.03 0.01 0.00 0.00 0.00 0.01 0.01 0.01 0.01 0.01 0.02 0.03 0.02 0.01 0.01 0.01 0.01 0.01 0.02 0.02 0.02 0.02 0.02
0.03 0.02 0.02 0.02 0.03 0.03 0.03 0.03 0.06 0.07 0.04 0.04 0.04 0.02 0.02 0.02 0.01 0.02 0.05 0.08 0.08 0.07 0.04 0.02 0.01 0.01 0.01 0.01 0.01 0.01 0.01 0.03 0.03 0.02 0.01 0.01 0.01 0.01 0.01 0.02 0.03 0.03 0.03
0.03 0.02 0.01 0.02 0.03 0.03 0.03 0.03 0.04 0.07 0.06 0.04 0.03 0.02 0.02 0.01 0.01 0.01 0.01 0.02 0.04 0.06 0.06 0.05 0.03 0.02 0.01 0.01 0.01 0.01 0.01 0.02 0.03 0.02 0.01 0.01 0.01 0.01 0.02 0.02 0.02 0.04 0.03
0.04 0.02 0.01 0.01 0.02 0.03 0.03 0.02 0.02 0.04 0.06 0.06 0.05 0.03 0.02 0.01 0.01 0.01 0.01 0.01 0.01 0.01 0.02 0.03 0.03 0.03 0.02 0.02 0.01 0.01 0.01 0.01 0.02 0.03 0.02 0.01 0.01 0.02 0.02 0.02 0.02 0.03 0.03
0.04 0.03 0.02 0.02 0.02 0.02 0.02 0.01 0.02 0.03 0.04 0.04 0.05 0.04 0.02 0.01 0.01 0.00 0.00 0.00 0.01 0.01 0.01 0.01 0.01 0.01 0.02 0.02 0.02 0.02 0.02 0.02 0.02 0.02 0.02 0.01 0.01 0.02 0.02 0.02 0.02 0.02 0.02
0.05 0.03 0.02 0.02 0.01 0.02 0.02 0.01 0.02 0.02 0.04 0.04 0.04 0.03 0.03 0.02 0.01 0.00 0.00 0.00 0.00 0.00 0.00 0.00 0.00 0.01 0.01 0.02 0.02 0.03 0.02 0.02 0.02 0.02 0.02 0.02 0.01 0.01 0.01 0.02 0.02 0.01 0.01
0.06 0.03 0.03 0.02 0.01 0.01 0.02 0.02 0.02 0.03 0.04 0.05 0.05 0.04 0.03 0.02 0.01 0.01 0.01 0.00 0.00 0.00 0.00 0.00 0.00 0.00 0.00 0.01 0.02 0.02 0.02 0.02 0.02 0.02 0.02 0.02 0.02 0.01 0.01 0.01 0.01 0.02 0.02
0.06 0.04 0.03 0.03 0.02 0.02 0.03 0.03 0.02 0.02 0.04 0.06 0.06 0.06 0.05 0.04 0.03 0.02 0.01 0.01 0.01 0.01 0.00 0.00 0.00 0.00 0.00 0.01 0.01 0.01 0.01 0.01 0.01 0.01 0.01 0.02 0.01 0.01 0.01 0.01 0.00 0.01 0.01
0.07 0.06 0.03 0.03 0.03 0.02 0.02 0.03 0.04 0.03 0.03 0.05 0.07 0.07 0.07 0.05 0.04 0.03 0.02 0.01 0.01 0.01 0.01 0.00 0.00 0.00 0.00 0.00 0.01 0.01 0.01 0.01 0.01 0.01 0.01 0.01 0.01 0.01 0.01 0.01 0.01 0.01 0.01
0.07 0.07 0.05 0.03 0.03 0.02 0.02 0.02 0.03 0.04 0.04 0.04 0.06 0.06 0.05 0.05 0.04 0.03 0.03 0.02 0.02 0.01 0.01 0.01 0.01 0.01 0.01 0.01 0.01 0.01 0.01 0.02 0.02 0.02 0.02 0.02 0.01 0.01 0.01 0.01 0.01 0.01 0.01
0.06 0.07 0.06 0.04 0.05 0.04 0.02 0.02 0.02 0.04 0.05 0.05 0.05 0.05 0.04 0.04 0.03 0.03 0.03 0.02 0.02 0.01 0.01 0.01 0.01 0.01 0.01 0.01 0.01 0.01 0.01 0.01 0.02 0.02 0.02 0.03 0.02 0.01 0.01 0.01 0.01 0.01 0.01
0.05 0.07 0.08 0.05 0.05 0.05 0.03 0.03 0.02 0.02 0.03 0.05 0.05 0.04 0.04 0.04 0.03 0.02 0.02 0.02 0.01 0.01 0.01 0.01 0.01 0.01 0.01 0.01 0.01 0.01 0.01 0.01 0.01 0.02 0.02 0.03 0.03 0.03 0.03 0.02 0.02 0.02 0.02
0.03 0.04 0.06 0.06 0.05 0.05 0.04 0.03 0.03 0.02 0.02 0.03 0.04 0.04 0.04 0.04 0.03 0.03 0.03 0.02 0.02 0.01 0.01 0.01 0.01 0.01 0.00 0.00 0.00 0.00 0.00 0.00 0.01 0.01 0.02 0.02 0.02 0.03 0.03 0.04 0.04 0.04 0.04
0.03 0.03 0.03 0.04 0.05 0.05 0.04 0.03 0.02 0.03 0.02 0.02 0.02 0.03 0.03 0.02 0.02 0.02 0.02 0.02 0.02 0.02 0.02 0.02 0.01 0.01 0.01 0.01 0.01 0.00 0.00 0.00 0.00 0.01 0.01 0.01 0.01 0.02 0.02 0.02 0.03 0.03 0.03
0.04 0.03 0.03 0.03 0.04 0.05 0.04 0.04 0.03 0.02 0.03 0.03 0.03 0.03 0.03 0.02 0.02 0.02 0.02 0.02 0.01 0.01 0.01 0.01 0.01 0.01 0.02 0.02 0.01 0.01 0.01 0.01 0.01 0.01 0.00 0.01 0.01 0.01 0.01 0.01 0.02 0.02 0.02
0.05 0.04 0.04 0.03 0.03 0.04 0.04 0.04 0.04 0.03 0.03 0.03 0.03 0.03 0.03 0.03 0.03 0.02 0.02 0.02 0.02 0.01 0.01 0.01 0.01 0.01 0.01 0.01 0.01 0.01 0.01 0.01 0.01 0.00 0.00 0.01 0.01 0.01 0.02 0.02 0.02 0.03 0.02
0.05 0.04 0.04 0.04 0.03 0.03 0.04 0.03 0.03 0.04 0.04 0.04 0.03 0.03 0.03 0.03 0.03 0.03 0.02 0.02 0.02 0.01 0.01 0.01 0.01 0.01 0.00 0.00 0.01 0.01 0.01 0.01 0.00 0.00 0.00 0.00 0.00 0.01 0.01 0.02 0.02 0.02 0.02
0.03 0.03 0.03 0.03 0.03 0.03 0.03 0.03 0.02 0.02 0.02 0.03 0.03 0.03 0.02 0.02 0.03 0.03 0.03 0.02 0.02 0.01 0.01 0.01 0.01 0.01 0.01 0.00 0.00 0.01 0.01 0.01 0.00 0.00 0.00 0.01 0.01 0.01 0.01 0.01 0.02 0.02 0.02
0.01 0.01 0.01 0.02 0.02 0.02 0.02 0.02 0.02 0.01 0.01 0.01 0.02 0.02 0.02 0.02 0.02 0.02 0.02 0.02 0.02 0.02 0.01 0.01 0.01 0.01 0.01 0.02 0.02 0.01 0.01 0.01 0.01 0.01 0.01 0.01 0.01 0.01 0.01 0.01 0.01 0.01 0.02
0.00 0.00 0.00 0.00 0.00 0.01 0.01 0.01 0.01 0.01 0.01 0.01 0.01 0.01 0.01 0.01 0.01 0.01 0.02 0.02 0.02 0.02 0.01 0.01 0.01 0.01 0.01 0.01 0.02 0.02 0.01 0.02 0.02 0.01 0.01 0.01 0.01 0.01 0.01 0.01 0.00 0.01 0.01
MSLP
1017.11 1017.49 1017.77 1018.00 1018.17 1018.32 1018.46 1018.59 1018.72 1018.84 1018.96 1019.08 1019.19 1019.31 1019.43 1019.56 1019.69 1019.84 1019.98 1020.11 1020.22 1020.32 1020.38 1020.43 1020.46 1020.48 1020.50 1020.51 1020.51 1020.50 1020.47 1020.41 1020.32 1020.19 1020.04 1019.86 1019.67 1019.47 1019.25 1019.03 1018.80 1018.53 1018.24
1016.99 1017.37 1017.67 1017.91 1018.11 1018.28 1018.45 1018.61 1018.79 1018.96 1019.13 1019.31 1019.48 1019.64 1019.80 1019.96 1020.12 1020.27 1020.41 1020.54 1020.64 1020.73 1020.79 1020.84 1020.87 1020.89 1020.90 1020.91 1020.90 1020.88 1020.84 1020.77 1020.67 1020.54 1020.39 1020.22 1020.03 1019.83 1019.62 1019.40 1019.15 1018.88 1018.57
1016.88 1017.26 1017.57 1017.82 1018.04 1018.25 1018.45 1018.67 1018.89 1019.12 1019.35 1019.58 1019.80 1020.01 1020.21 1020.40 1020.57 1020.73 1020.87 1020.99 1021.09 1021.17 1021.24 1021.28 1021.31 1021.33 1021.33 1021.32 1021.30 1021.26 1021.19 1021.11 1020.99 1020.85 1020.70 1020.52 1020.34 1020.14 1019.93 1019.71 1019.46 1019.18 1018.87
1016.81 1017.18 1017.49 1017.76 1018.00 1018.23 1018.47 1018.72 1018.99 1019.27 1019.56 1019.84 1020.11 1020.36 1020.58 1020.79 1020.97 1021.13 1021.28 1021.40 1021.50 1021.59 1021.67 1021.72 1021.76 1021.77 1021.77 1021.75 1021.70 1021.63 1021.53 1021.41 1021.28 1021.12 1020.96 1020.78 1020.60 1020.40 1020.19 1019.96 1019.71 1019.43 1019.11
1016.81 1017.16 1017.47 1017.73 1017.98 1018.22 1018.48 1018.76 1019.06 1019.37 1019.70 1020.01 1020.31 1020.59 1020.84 1021.06 1021.25 1021.42 1021.57 1021.70 1021.82 1021.93 1022.02 1022.10 1022.15 1022.18 1022.17 1022.14 1022.07 1021.97 1021.84 1021.69 1021.53 1021.36 1021.17 1020.99 1020.79 1020.60 1020.38 1020.15 1019.90 1019.62 1019.30
1016.87 1017.21 1017.50 1017.76 1017.99 1018.23 1018.48 1018.76 1019.07 1019.39 1019.73 1020.06 1020.38 1020.67 1020.93 1021.16 1021.35 1021.53 1021.68 1021.84 1021.98 1022.12 1022.25 1022.36 1022.44 1022.49 1022.50 1022.47 1022.39 1022.28 1022.12 1021.95 1021.76 1021.56 1021.36 1021.17 1020.97 1020.76 1020.55 1020.32 1020.06 1019.79 1019.48
1017.00 1017.32 1017.59 1017.82 1018.03 1018.24 1018.47 1018.72 1019.01 1019.33 1019.66 1019.99 1020.30 1020.59 1020.85 1021.08 1021.28 1021.45 1021.62 1021.79 1021.96 1022.14 1022.31 1022.47 1022.60 1022.69 1022.74 1022.72 1022.66 1022.54 1022.38 1022.19 1021.98 1021.77 1021.56 1021.35 1021.14 1020.93 1020.72 1020.49 1020.24 1019.97 1019.68
1017.16 1017.47 1017.72 1017.92 1018.09 1018.26 1018.45 1018.67 1018.92 1019.21 1019.52 1019.83 1020.13 1020.41 1020.66 1020.87 1021.06 1021.24 1021.41 1021.59 1021.79 1022.00 1022.22 1022.43 1022.62 1022.77 1022.86 1022.89 1022.85 1022.75 1022.60 1022.42 1022.21 1021.99 1021.77 1021.56 1021.35 1021.14 1020.93 1020.70 1020.46 1020.20 1019.92
1017.31 1017.62 1017.85 1018.02 1018.16 1018.30 1018.44 1018.62 1018.83 1019.09 1019.37 1019.65 1019.94 1020.20 1020.42 1020.62 1020.79 1020.95 1021.11 1021.30 1021.50 1021.74 1022.00 1022.26 1022.51 1022.72 1022.88 1022.96 1022.98 1022.92 1022.80 1022.64 1022.44 1022.23 1022.02 1021.81 1021.60 1021.40 1021.19 1020.97 1020.75 1020.50 1020.24
1017.43 1017.74 1017.96 1018.12 1018.24 1018.34 1018.45 1018.60 1018.78 1019.01 1019.26 1019.53 1019.80 1020.04 1020.24 1020.41 1020.56 1020.69 1020.83 1020.99 1021.19 1021.43 1021.71 1022.01 1022.31 1022.58 1022.80 1022.95 1023.03 1023.04 1022.96 1022.84 1022.67 1022.48 1022.28 1022.08 1021.88 1021.68 1021.48 1021.28 1021.07 1020.85 1020.61
1017.48 1017.80 1018.03 1018.19 1018.30 1018.39 1018.49 1018.62 1018.79 1019.00 1019.25 1019.51 1019.76 1019.99 1020.17 1020.32 1020.43 1020.53 1020.63 1020.76 1020.93 1021.15 1021.43 1021.74 1022.07 1022.38 1022.66 1022.88 1023.03 1023.09 1023.08 1023.00 1022.86 1022.70 1022.52 1022.33 1022.14 1021.95 1021.77 1021.58 1021.39 1021.20 1020.98
1017.46 1017.79 1018.03 1018.21 1018.33 1018.44 1018.55 1018.68 1018.86 1019.07 1019.32 1019.58 1019.84 1020.06 1020.23 1020.36 1020.44 1020.50 1020.56 1020.64 1020.76 1020.95 1021.20 1021.50 1021.83 1022.18 1022.49 1022.76 1022.96 1023.08 1023.12 1023.08 1022.98 1022.84 1022.68 1022.51 1022.33 1022.16 1021.99 1021.82 1021.65 1021.48 1021.29
1017.35 1017.70 1017.97 1018.18 1018.33 1018.46 1018.60 1018.76 1018.95 1019.18 1019.45 1019.72 1019.99 1020.21 1020.39 1020.50 1020.57 1020.59 1020.61 1020.64 1020.71 1020.85 1021.06 1021.32 1021.64 1021.98 1022.31 1022.61 1022.84 1023.00 1023.07 1023.07 1023.00 1022.88 1022.73 1022.57 1022.40 1022.24 1022.08 1021.93 1021.78 1021.63 1021.47
1017.19 1017.56 1017.86 1018.10 1018.29 1018.46 1018.62 1018.81 1019.03 1019.28 1019.57 1019.86 1020.14 1020.38 1020.57 1020.69 1020.75 1020.76 1020.74 1020.73 1020.76 1020.85 1021.00 1021.23 1021.51 1021.82 1022.14 1022.43 1022.67 1022.84 1022.93 1022.94 1022.89 1022.78 1022.64 1022.48 1022.32 1022.16 1022.02 1021.89 1021.76 1021.63 1021.49
1016.99 1017.38 1017.71 1017.98 1018.20 1018.40 1018.60 1018.81 1019.05 1019.32 1019.62 1019.93 1020.23 1020.49 1020.70 1020.83 1020.90 1020.92 1020.90 1020.87 1020.87 1020.91 1021.02 1021.19 1021.42 1021.69 1021.97 1022.23 1022.45 1022.61 1022.70 1022.72 1022.66 1022.55 1022.41 1022.25 1022.10 1021.94 1021.81 1021.68 1021.57 1021.47 1021.35
1016.80 1017.20 1017.54 1017.84 1018.08 1018.30 1018.52 1018.74 1018.98 1019.26 1019.56 1019.88 1020.19 1020.47 1020.70 1020.87 1020.97 1021.01 1021.01 1020.99 1020.98 1021.00 1021.07 1021.19 1021.37 1021.58 1021.81 1022.03 1022.21 1022.34 1022.40 1022.40 1022.34 1022.22 1022.08 1021.92 1021.76 1021.61 1021.47 1021.36 1021.26 1021.17 1021.07
1016.63 1017.03 1017.38 1017.68 1017.94 1018.16 1018.38 1018.59 1018.83 1019.09 1019.38 1019.69 1020.00 1020.30 1020.56 1020.76 1020.91 1020.99 1021.03 1021.04 1021.04 1021.06 1021.11 1021.20 1021.32 1021.48 1021.65 1021.81 1021.94 1022.03 1022.06 1022.04 1021.96 1021.84 1021.68 1021.52 1021.36 1021.21 1021.08 1020.97 1020.88 1020.79 1020.71
1016.51 1016.90 1017.24 1017.53 1017.78 1018.00 1018.20 1018.39 1018.60 1018.83 1019.10 1019.39 1019.70 1020.00 1020.28 1020.52 1020.72 1020.86 1020.95 1021.00 1021.04 1021.07 1021.11 1021.18 1021.26 1021.37 1021.48 1021.59 1021.67 1021.71 1021.71 1021.67 1021.57 1021.44 1021.29 1021.13 1020.97 1020.82 1020.69 1020.58 1020.49 1020.41 1020.34
1016.42 1016.79 1017.12 1017.40 1017.63 1017.82 1018.00 1018.16 1018.34 1018.55 1018.79 1019.05 1019.35 1019.65 1019.94 1020.21 1020.45 1020.64 1020.78 1020.88 1020.96 1021.01 1021.06 1021.11 1021.16 1021.23 1021.29 1021.35 1021.39 1021.40 1021.38 1021.31 1021.22 1021.09 1020.94 1020.79 1020.64 1020.49 1020.37 1020.26 1020.16 1020.08 1020.00
1016.37 1016.71 1017.01 1017.26 1017.48 1017.66 1017.81 1017.96 1018.11 1018.29 1018.50 1018.75 1019.02 1019.32 1019.61 1019.90 1020.16 1020.39 1020.57 1020.71 1020.82 1020.89 1020.94 1020.99 1021.02 1021.06 1021.09 1021.11 1021.12 1021.11 1021.07 1021.01 1020.92 1020.81 1020.68 1020.54 1020.40 1020.27 1020.14 1020.02 1019.92 1019.82 1019.73
1016.33 1016.64 1016.91 1017.14 1017.34 1017.51 1017.65 1017.79 1017.94 1018.11 1018.30 1018.53 1018.79 1019.08 1019.37 1019.66 1019.93 1020.17 1020.37 1020.53 1020.65 1020.73 1020.78 1020.82 1020.84 1020.85 1020.86 1020.86 1020.86 1020.84 1020.81 1020.76 1020.69 1020.61 1020.51 1020.40 1020.27 1020.15 1020.02 1019.89 1019.77 1019.65 1019.54
1016.29 1016.57 1016.81 1017.03 1017.22 1017.39 1017.55 1017.70 1017.86 1018.04 1018.23 1018.46 1018.71 1018.98 1019.26 1019.53 1019.79 1020.02 1020.21 1020.37 1020.48 1020.56 1020.60 1020.63 1020.64 1020.64 1020.64 1020.64 1020.63 1020.62 1020.61 1020.58 1020.55 1020.49 1020.42 1020.34 1020.23 1020.11 1019.98 1019.84 1019.69 1019.55 1019.40
1016.25 1016.50 1016.73 1016.94 1017.13 1017.32 1017.50 1017.68 1017.88 1018.08 1018.30 1018.53 1018.78 1019.04 1019.30 1019.54 1019.77 1019.97 1020.13 1020.26 1020.34 1020.40 1020.43 1020.44 1020.44 1020.44 1020.44 1020.44 1020.45 1020.46 1020.47 1020.47 1020.47 1020.45 1020.40 1020.34 1020.25 1020.14 1020.00 1019.84 1019.67 1019.49 1019.31
1016.20 1016.43 1016.65 1016.87 1017.08 1017.29 1017.52 1017.74 1017.98 1018.22 1018.47 1018.73 1018.98 1019.23 1019.46 1019.67 1019.85 1020.00 1020.12 1020.20 1020.26 1020.28 1020.29 1020.29 1020.28 1020.28 1020.29 1020.30 1020.32 1020.36 1020.39 1020.43 1020.45 1020.45 1020.43 1020.38 1020.30 1020.18 1020.03 1019.86 1019.66 1019.45 1019.23
1016.15 1016.38 1016.60 1016.83 1017.06 1017.31 1017.57 1017.85 1018.13 1018.42 1018.71 1018.99 1019.25 1019.48 1019.69 1019.86 1020.00 1020.10 1020.17 1020.21 1020.22 1020.22 1020.21 1020.20 1020.19 1020.19 1020.21 1020.24 1020.28 1020.33 1020.38 1020.43 1020.47 1020.48 1020.47 1020.42 1020.33 1020.20 1020.04 1019.85 1019.63 1019.40 1019.15
1016.10 1016.34 1016.57 1016.82 1017.08 1017.36 1017.67 1017.98 1018.31 1018.64 1018.96 1019.26 1019.52 1019.75 1019.93 1020.07 1020.17 1020.22 1020.25 1020.25 1020.23 1020.21 1020.18 1020.16 1020.16 1020.17 1020.20 1020.25 1020.30 1020.36 1020.42 1020.47 1020.50 1020.51 1020.48 1020.42 1020.32 1020.18 1020.00 1019.79 1019.56 1019.30 1019.04
Thickness
5664 5664 5665 5665 5666 5667 5668 5669 5670 5670 5670 5670 5670 5670 5671 5670 5670 5669 5667 5665 5666 5666 5666 5666 5666 5666 5665 5664 5664 5663 5661 5660 5659 5658 5657 5656 5655 5654 5653 5653 5652 5651 5650
5657 5658 5659 5659 5659 5660 5661 5662 5663 5664 5664 5664 5664 5664 5664 5664 5663 5663 5662 5660 5659 5659 5659 5659 5659 5659 5659 5659 5658 5657 5656 5654 5654 5653 5652 5651 5650 5649 5648 5647 5646 5645 5644
5649 5651 5652 5652 5652 5653 5654 5655 5656 5657 5657 5657 5657 5657 5656 5656 5656 5656 5655 5654 5653 5652 5651 5652 5652 5652 5652 5652 5652 5651 5650 5649 5648 5647 5646 5645 5644 5643 5642 5641 5640 5639 5638
5641 5643 5645 5645 5645 5646 5647 5648 5649 5649 5650 5650 5650 5650 5649 5648 5649 5649 5648 5647 5647 5646 5645 5644 5644 5644 5644 5644 5645 5644 5644 5642 5641 5640 5639 5638 5637 5636 5636 5635 5634 5633 5632
5633 5635 5637 5638 5638 5639 5641 5641 5642 5643 5643 5643 5643 5642 5642 5641 5641 5641 5641 5640 5639 5639 5639 5637 5636 5636 5636 5636 5637 5637 5636 5636 5635 5633 5632 5631 5630 5630 5629 5629 5628 5627 5626
5626 5628 5629 5630 5631 5632 5633 5634 5635 5635 5636 5636 5635 5634 5634 5634 5634 5634 5634 5633 5632 5631 5631 5631 5630 5629 5628 5628 5628 5629 5628 5628 5627 5626 5625 5624 5623 5623 5622 5622 5621 5620 5619
5619 5620 5622 5623 5624 5625 5627 5628 5628 5628 5628 5629 5628 5627 5626 5626 5627 5627 5626 5626 5625 5624 5623 5623 5623 5622 5622 5620 5620 5620 5620 5620 5620 5619 5618 5617 5616 5616 5615 5614 5614 5613 5612
5611 5613 5615 5616 5617 5618 5619 5620 5621 5621 5620 5621 5623 5623 5621 5620 5620 5619 5619 5618 5618 5616 5616 5615 5614 5614 5613 5613 5612 5611 5611 5611 5611 5611 5610 5609 5609 5608 5608 5607 5606 5606 5605
5603 5605 5607 5609 5609 5610 5612 5612 5613 5614 5613 5613 5614 5617 5618 5619 5616 5613 5612 5611 5610 5609 5608 5607 5606 5605 5604 5604 5604 5603 5602 5602 5602 5602 5602 5601 5601 5601 5600 5599 5598 5598 5597
5595 5596 5598 5600 5601 5603 5604 5604 5604 5606 5606 5606 5605 5606 5609 5612 5610 5609 5606 5604 5602 5601 5601 5599 5598 5597 5596 5595 5594 5594 5594 5593 5593 5593 5593 5593 5593 5592 5592 5591 5590 5590 5589
5586 5588 5590 5591 5593 5594 5595 5596 5596 5597 5598 5598 5598 5598 5599 5599 5601 5602 5602 5598 5595 5594 5592 5591 5590 5589 5587 5586 5586 5585 5585 5585 5584 5584 5585 5584 5584 5583 5582 5582 5581 5581 5580
5577 5579 5581 5582 5584 5585 5586 5587 5587 5587 5589 5590 5589 5590 5591 5592 5593 5593 5593 5591 5589 5587 5584 5583 5582 5581 5579 5578 5577 5575 5575 5575 5575 5575 5575 5575 5574 5574 5573 5572 5571 5571 5570
5570 5571 5572 5574 5575 5576 5576 5577 5577 5578 5579 5580 5580 5580 5581 5582 5582 5582 5582 5581 5580 5579 5576 5575 5573 5572 5570 5568 5567 5566 5565 5565 5564 5565 5565 5565 5564 5563 5563 5562 5562 5561 5560
5562 5563 5564 5565 5566 5567 5567 5567 5568 5568 5569 5569 5569 5570 5571 5570 5570 5570 5570 5569 5570 5570 5570 5569 5565 5563 5561 5559 5558 5556 5556 5555 5555 5555 5555 5555 5554 5553 5552 5552 5551 5551 5550
5554 5554 5556 5557 5557 5558 5558 5558 5558 5558 5559 5559 5559 5559 5560 5559 5558 5558 5558 5557 5558 5562 5564 5561 5557 5554 5551 5549 5547 5546 5547 5546 5545 5545 5545 5544 5543 5542 5541 5541 5540 5540 5540
5546 5546 5547 5547 5548 5548 5548 5548 5548 5548 5549 5549 5549 5549 5549 5549 5548 5547 5547 5546 5546 5548 5551 5550 5546 5543 5540 5539 5537 5536 5536 5536 5535 5535 5534 5534 5533 5533 5531 5531 5530 5529 5529
5537 5539 5539 5538 5538 5538 5538 5539 5539 5538 5538 5539 5538 5539 5538 5537 5537 5537 5536 5536 5536 5536 5537 5538 5534 5531 5530 5529 5527 5526 5525 5525 5526 5525 5524 5523 5522 5521 5521 5520 5519 5518 5517
5529 5530 5530 5529 5529 5528 5528 5528 5529 5529 5529 5529 5528 5528 5527 5526 5526 5526 5525 5525 5525 5525 5525 5526 5524 5521 5520 5518 5517 5515 5514 5514 5514 5514 5512 5511 5511 5510 5509 5508 5507 5506 5506
5520 5520 5520 5520 5520 5519 5518 5518 5518 5518 5518 5518 5518 5517 5517 5516 5516 5516 5515 5515 5514 5513 5512 5513 5513 5509 5508 5506 5505 5504 5503 5502 5502 5501 5500 5499 5498 5497 5497 5496 5495 5494 5494
5510 5510 5510 5510 5510 5510 5509 5508 5508 5507 5507 5507 5506 5506 5506 5506 5506 5505 5504 5503 5503 5501 5501 5500 5499 5498 5496 5494 5492 5492 5492 5491 5491 5489 5488 5487 5486 5485 5485 5484 5483 5482 5481
5500 5500 5499 5499 5499 5499 5499 5498 5497 5496 5496 5496 5495 5494 5494 5493 5493 5492 5491 5492 5490 5490 5489 5488 5487 5486 5484 5482 5480 5479 5477 5477 5478 5476 5475 5475 5473 5474 5473 5472 5471 5469 5468
5489 5488 5488 5488 5488 5487 5487 5485 5484 5484 5484 5484 5484 5483 5482 5480 5480 5478 5477 5477 5477 5477 5477 5476 5476 5475 5475 5472 5468 5465 5463 5462 5465 5464 5461 5463 5460 5461 5460 5459 5458 5456 5455
5477 5477 5477 5476 5477 5477 5474 5473 5471 5471 5472 5473 5472 5472 5470 5470 5467 5467 5466 5465 5464 5462 5461 5463 5463 5464 5462 5459 5455 5452 5450 5449 5450 5449 5445 5449 5448 5447 5446 5445 5443 5442 5442
5465 5465 5465 5465 5465 5465 5463 5461 5459 5458 5460 5461 5460 5460 5458 5457 5455 5453 5453 5454 5453 5451 5450 5448 5449 5449 5446 5444 5440 5438 5436 5434 5434 5433 5429 5432 5434 5432 5431 5431 5429 5428 5428
5454 5454 5453 5453 5453 5453 5450 5448 5446 5446 5448 5449 5448 5446 5445 5444 5442 5440 5440 5440 5440 5440 5437 5435 5434 5433 5431 5429 5425 5422 5420 5419 5421 5421 5416 5414 5417 5416 5416 5417 5417 5415 5414
5443 5442 5441 5441 5440 5440 5439 5437 5434 5435 5436 5437 5435 5434 5431 5431 5429 5426 5426 5427 5427 5428 5426 5424 5421 5420 5418 5416 5413 5410 5408 5406 5405 5406 5404 5399 5400 5397 5401 5405 5404 5403 5402